Weather History for Cape Girardeau, MO

Change the Weather History Date:

Monday, December 30, 2013

  Actual Average Record
Temperature  
Mean Temperature 24 °F 33 °F  
Max Temperature 29 °F 42 °F 64 °F (1971)
Min Temperature 18 °F 25 °F -5 °F (1983)
Degree Days  
Heating Degree Days 41 32  
Month to date heating degree days 927 868  
Since 1 July heating degree days 1833 1719  
Cooling Degree Days 0 0  
Month to date cooling degree days 0 0  
Year to date cooling degree days 1441 1453  
Moisture  
Dew Point 12 °F    
Average Humidity 60    
Maximum Humidity 77    
Minimum Humidity 42    
Precipitation  
Precipitation 0.00 in 0.12 in 1.08 in (1990)
Month to date precipitation 5.56 4.13  
Year to date precipitation 40.08 46.69  
Sea Level Pressure  
Sea Level Pressure 30.31 in    
Wind  
Wind Speed 7 mph (NW)    
Max Wind Speed 14 mph    
Max Gust Speed 17 mph    
Visibility 10 miles    
Events      
T = Trace of Precipitation, MM = Missing Value Source: NWS Daily Summary

Daily Weather History Graph

Daily Weather History Graph

Search for Another Location

Airport:

Trip Planner

Search our weather history database for the weather conditions in past years. The results will help you decide how hot, cold, wet, or windy it might be!

Date:

Astronomy

Dec. 30, 2013 Rise Set
Actual Time 7:11 AM CST 4:50 PM CST
Civil Twilight 6:42 AM CST 5:19 PM CST
Nautical Twilight 6:10 AM CST 5:51 PM CST
Astronomical Twilight 5:38 AM CST 6:23 PM CST
Moon 5:02 AM CST (12/30) 3:22 PM CST (12/30)
Length of Visible Light 10h 36m
Length of Day
9h 38m
Waning Crescent, 4% of the Moon is Illuminated
Dec 30
Waning Crescent
Jan 1
New
Jan 7
First Quarter
Jan 15
Full
Jan 23
Last Quarter

Hourly Weather History & Observations

Time (CST) Temp. Windchill Dew Point Humidity Pressure Visibility Wind Dir Wind Speed Gust Speed Precip Events Conditions
12:53 AM 24.1 °F 13.7 °F 16.0 °F 71% 30.26 in 10.0 mi NNW 10.4 mph - N/A   Overcast
1:53 AM 23.0 °F 11.7 °F 15.1 °F 72% 30.28 in 10.0 mi North 11.5 mph - N/A   Overcast
2:19 AM 21.9 °F 12.5 °F 15.1 °F 75% 30.28 in 10.0 mi NNW 8.1 mph - N/A   Scattered Clouds
2:53 AM 21.9 °F 11.7 °F 15.1 °F 75% 30.30 in 10.0 mi NNW 9.2 mph - N/A   Clear
3:53 AM 21.0 °F 9.9 °F 12.0 °F 68% 30.30 in 10.0 mi North 10.4 mph - N/A   Clear
4:53 AM 19.9 °F 9.3 °F 12.0 °F 71% 30.32 in 10.0 mi North 9.2 mph - N/A   Overcast
5:53 AM 19.0 °F 7.5 °F 10.0 °F 68% 30.32 in 10.0 mi North 10.4 mph - N/A   Clear
6:53 AM 18.0 °F 7.7 °F 10.0 °F 71% 30.34 in 10.0 mi North 8.1 mph - N/A   Clear
7:53 AM 18.0 °F 6.1 °F 9.0 °F 68% 30.35 in 10.0 mi North 10.4 mph - N/A   Clear
8:53 AM 19.9 °F 7.3 °F 8.1 °F 60% 30.35 in 10.0 mi North 12.7 mph - N/A   Clear
9:53 AM 23.0 °F 13.1 °F 6.1 °F 48% 30.35 in 10.0 mi NNE 9.2 mph - N/A   Clear
10:53 AM 25.0 °F 15.5 °F 5.0 °F 43% 30.34 in 10.0 mi NNE 9.2 mph - N/A   Clear
11:53 AM 26.1 °F 18.4 °F 6.1 °F 43% 30.32 in 10.0 mi Variable 6.9 mph - N/A   Partly Cloudy
12:53 PM 27.0 °F - 6.1 °F 41% 30.29 in 10.0 mi Calm Calm - N/A   Scattered Clouds
1:53 PM 27.0 °F 23.0 °F 8.1 °F 45% 30.29 in 10.0 mi SW 3.5 mph - N/A   Scattered Clouds
2:53 PM 28.0 °F - 10.0 °F 47% 30.28 in 10.0 mi Calm Calm - N/A   Clear
3:53 PM 28.0 °F 24.2 °F 9.0 °F 45% 30.28 in 10.0 mi WSW 3.5 mph - N/A   Clear
4:53 PM 27.0 °F 23.0 °F 10.0 °F 49% 30.28 in 10.0 mi South 3.5 mph - N/A   Mostly Cloudy
5:53 PM 27.0 °F - 17.1 °F 66% 30.29 in 10.0 mi Calm Calm - N/A   Partly Cloudy
6:53 PM 26.1 °F 21.9 °F 16.0 °F 66% 30.30 in 10.0 mi South 3.5 mph - N/A   Partly Cloudy
7:53 PM 25.0 °F 19.3 °F 15.1 °F 66% 30.31 in 10.0 mi SSW 4.6 mph - N/A   Clear
8:53 PM 24.1 °F 18.2 °F 14.0 °F 65% 30.31 in 10.0 mi SSW 4.6 mph - N/A   Partly Cloudy
9:53 PM 25.0 °F 18.1 °F 17.1 °F 72% 30.32 in 10.0 mi SSW 5.8 mph - N/A   Mostly Cloudy
10:53 PM 24.1 °F 18.2 °F 17.1 °F 75% 30.32 in 10.0 mi SSW 4.6 mph - N/A   Scattered Clouds
11:53 PM 24.1 °F 18.2 °F 17.1 °F 75% 30.32 in 10.0 mi SW 4.6 mph - N/A   Partly Cloudy